CZ-4C DEB

Satellite information

Favourite Embed

Satellite Type and Status

DEBRISIN ORBIT

Key statistics

Satellite CZ-4C DEB at a glance.

Uptime

6608

Days in orbit

Revolutions

≈ 14.7

Per day

Orbit

SSO

Sun Synchronous Orbit

Inclination

97.9

Latest

Satellite identification and parameters

Extended collection of information and parameters for CZ-4C DEB.

Object identification

Identified? True

Debris? True

Object name: CZ-4C DEB

International designator: 2007-055F

Object number (NORAD): 35251

Object ID (CCSDS): 35251

Country: PEOPLES REPUBLIC OF CHINA (PRC)

Current information (Y/N): Y

RCS size: SMALL

Orbital parameters

Period: 98.117 minutes

Inclination: 97.9053 deg

SMA: 7046.747 km

Apoapsis: 772.109 km

Periapsis: 565.116 km

RAAN: 284.9209 deg

Eccentricy: 0.01468714

Argument of periapsis: 103.2935 deg

Mean anomaly: 258.4696 deg

Mean motion: 14.67640611 rev/day

Mean motion (dot): 0.00007061 rev/day2

B* drag term: 0.0010622893 1/REarth

Two-line elements (TLE)

Creation date: Dec. 14, 2025, 3:07 a.m.

Reference frame: TEME

Reference center: EARTH

Epoch: Dec. 13, 2025, 1:27 p.m. UTC

TLE line 0: 0 CZ-4C DEB

TLE line 1: 1 35251U 07055F 25347.56074447 .00007061 00000-0 10623-2 0 9999

TLE line 2: 2 35251 97.9053 284.9209 0146871 103.2935 258.4696 14.67640611950522

Live tracking on map

Real-time ground track for satellite CZ-4C DEB.

In-orbit conjunctions

A list of the most updated potential collisions computed for object CZ-4C DEB.

Target Orbit TCA Probability of collision Miss distance Type
OKEAN 4 LEO 2024-11-24 01:23:03 0.0001299537 537.0 (m) PAYLOAD

Associated space launch

Chinese Earth observation satellite likely also used for military reconnaissance

CZ-4C DEB was lifted into orbit during the mission ‘Long March 4C | Yaogan Weixing 3’, on board a Long March 4C space rocket.

The launch took place on Nov. 11, 2007, 10:48 p.m. from Launch Complex 7.

For more information about the launch, click the button.

Launch to space Long March 4C | Yaogan Weixing 3
Long March 4C | Yaogan Weixing 3

Agency: N/A

Status: Launch Successful

Launch date: Nov. 11, 2007, 10:48 p.m. UTC

Rocket: Long March 4C

Launch pad: Launch Complex 7

Location: Taiyuan Satellite Launch Center, People's Republic of China

...

Latest news about this satellite

There are no fresh news available about this satellite. Check back as we update our databases every day.


Newsletter sign-up

Weekly statistics, charts and insights to help you stay on top of the space industry.